Time,TemperatureF,DewpointF,PressureIn,WindDirection,WindDirectionDegrees,WindSpeedMPH,WindSpeedGustMPH,Humidity,HourlyPrecipIn,Conditions,Clouds,dailyrainin,SoftwareType,DateUTC
2013-04-22 00:02:00,45.0,33.4,30.63,SE,135,1.0,4.0,64,0.00,,,0.00,meteohub,2013-04-22 04:02:00,
2013-04-22 00:12:00,45.0,34.3,30.63,SE,135,2.0,4.0,66,0.00,,,0.00,meteohub,2013-04-22 04:12:00,
2013-04-22 00:22:00,44.1,33.4,30.63,SE,135,2.0,3.0,66,0.00,,,0.00,meteohub,2013-04-22 04:22:00,
2013-04-22 00:32:00,44.1,33.4,30.62,SE,135,2.0,3.0,66,0.00,,,0.00,meteohub,2013-04-22 04:32:00,
2013-04-22 00:42:00,44.1,33.4,30.62,SE,135,2.0,3.0,66,0.00,,,0.00,meteohub,2013-04-22 04:42:00,
2013-04-22 00:52:00,44.1,33.8,30.62,ESE,112,2.0,3.0,67,0.00,,,0.00,meteohub,2013-04-22 04:52:00,
2013-04-22 01:02:00,43.0,33.4,30.62,SE,135,2.0,4.0,69,0.00,,,0.00,meteohub,2013-04-22 05:02:00,
2013-04-22 01:12:00,43.0,34.2,30.62,ESE,112,2.0,4.0,71,0.00,,,0.00,meteohub,2013-04-22 05:12:00,
2013-04-22 01:23:00,43.0,34.5,30.61,ESE,112,1.0,3.0,72,0.00,,,0.00,meteohub,2013-04-22 05:23:00,
2013-04-22 01:32:00,43.0,35.2,30.61,SE,135,2.0,2.0,74,0.00,,,0.00,meteohub,2013-04-22 05:32:00,
2013-04-22 01:42:00,43.0,36.0,30.60,SE,135,1.0,4.0,76,0.00,,,0.00,meteohub,2013-04-22 05:42:00,
2013-04-22 01:52:00,42.1,35.1,30.60,ESE,112,2.0,4.0,76,0.00,,,0.00,meteohub,2013-04-22 05:52:00,
2013-04-22 02:02:00,42.1,35.1,30.60,SE,135,2.0,4.0,76,0.00,,,0.00,meteohub,2013-04-22 06:02:00,
2013-04-22 02:12:00,42.1,35.4,30.60,SE,135,1.0,2.0,77,0.00,,,0.00,meteohub,2013-04-22 06:12:00,
2013-04-22 02:22:00,42.1,35.4,30.60,SE,135,2.0,2.0,77,0.00,,,0.00,meteohub,2013-04-22 06:22:00,
2013-04-22 02:32:00,42.1,35.8,30.60,SE,135,0.0,2.0,78,0.00,,,0.00,meteohub,2013-04-22 06:32:00,
2013-04-22 02:42:00,41.0,35.1,30.60,SE,135,0.0,2.0,79,0.00,,,0.00,meteohub,2013-04-22 06:42:00,
2013-04-22 02:52:00,39.9,34.5,30.60,SE,135,0.0,2.0,81,0.00,,,0.00,meteohub,2013-04-22 06:52:00,
2013-04-22 03:02:00,39.9,35.2,30.60,SE,135,0.0,0.0,83,0.00,,,0.00,meteohub,2013-04-22 07:02:00,
2013-04-22 03:12:00,39.0,34.5,30.60,SE,135,0.0,0.0,84,0.00,,,0.00,meteohub,2013-04-22 07:12:00,
2013-04-22 03:22:00,37.9,34.3,30.59,SE,135,0.0,0.0,87,0.00,,,0.00,meteohub,2013-04-22 07:22:00,
2013-04-22 03:32:00,37.9,34.3,30.59,SE,135,0.0,0.0,87,0.00,,,0.00,meteohub,2013-04-22 07:32:00,
2013-04-22 03:42:00,37.9,34.7,30.59,SE,135,0.0,0.0,88,0.00,,,0.00,meteohub,2013-04-22 07:42:00,
2013-04-22 03:52:00,37.9,35.2,30.58,SE,135,0.0,0.0,90,0.00,,,0.00,meteohub,2013-04-22 07:52:00,
2013-04-22 04:02:00,37.0,34.2,30.58,SE,135,0.0,0.0,89,0.00,,,0.00,meteohub,2013-04-22 08:02:00,
2013-04-22 04:12:00,37.0,34.3,30.57,NE,45,0.0,2.0,90,0.00,,,0.00,meteohub,2013-04-22 08:12:00,
2013-04-22 04:22:00,37.0,34.3,30.57,NE,45,1.0,2.0,90,0.00,,,0.00,meteohub,2013-04-22 08:22:00,
2013-04-22 04:32:00,37.0,34.7,30.57,NE,45,0.0,2.0,91,0.00,,,0.00,meteohub,2013-04-22 08:32:00,
2013-04-22 04:42:00,37.0,34.3,30.57,NE,45,0.0,2.0,90,0.00,,,0.00,meteohub,2013-04-22 08:42:00,
2013-04-22 04:52:00,36.0,33.8,30.57,NE,45,0.0,2.0,92,0.00,,,0.00,meteohub,2013-04-22 08:52:00,
2013-04-22 05:02:00,36.0,33.8,30.56,NE,45,0.0,2.0,92,0.00,,,0.00,meteohub,2013-04-22 09:02:00,
2013-04-22 05:12:00,35.1,33.3,30.56,NE,45,0.0,2.0,93,0.00,,,0.00,meteohub,2013-04-22 09:12:00,
2013-04-22 05:22:00,35.1,33.3,30.56,NE,45,0.0,1.0,93,0.00,,,0.00,meteohub,2013-04-22 09:22:00,
2013-04-22 05:32:00,35.1,33.4,30.56,NE,45,0.0,0.0,94,0.00,,,0.00,meteohub,2013-04-22 09:32:00,
2013-04-22 05:42:00,35.1,33.3,30.56,NE,45,0.0,0.0,93,0.00,,,0.00,meteohub,2013-04-22 09:42:00,
2013-04-22 05:52:00,35.1,33.4,30.56,NE,45,0.0,0.0,94,0.00,,,0.00,meteohub,2013-04-22 09:52:00,
2013-04-22 06:02:00,35.1,33.8,30.56,NE,45,1.0,2.0,95,0.00,,,0.00,meteohub,2013-04-22 10:02:00,
2013-04-22 06:12:00,35.1,33.8,30.56,NE,45,1.0,2.0,95,0.00,,,0.00,meteohub,2013-04-22 10:12:00,
2013-04-22 06:22:00,35.1,33.8,30.56,NE,45,1.0,2.0,95,0.00,,,0.00,meteohub,2013-04-22 10:22:00,
2013-04-22 06:32:00,34.0,32.7,30.56,NE,45,2.0,2.0,95,0.00,,,0.00,meteohub,2013-04-22 10:32:00,
2013-04-22 06:42:00,35.1,33.8,30.56,NE,45,0.0,2.0,95,0.00,,,0.00,meteohub,2013-04-22 10:42:00,
2013-04-22 06:52:00,35.1,33.8,30.57,NE,45,0.0,2.0,95,0.00,,,0.00,meteohub,2013-04-22 10:52:00,
2013-04-22 07:02:00,35.1,33.8,30.57,NE,45,0.0,2.0,95,0.00,,,0.00,meteohub,2013-04-22 11:02:00,
2013-04-22 07:12:00,35.1,33.8,30.57,NE,45,0.0,2.0,95,0.00,,,0.00,meteohub,2013-04-22 11:12:00,
2013-04-22 07:22:00,36.0,34.7,30.58,NE,45,0.0,2.0,95,0.00,,,0.00,meteohub,2013-04-22 11:22:00,
2013-04-22 07:32:00,37.0,35.2,30.58,NE,45,0.0,2.0,93,0.00,,,0.00,meteohub,2013-04-22 11:32:00,
2013-04-22 07:42:00,37.9,35.6,30.59,NE,45,2.0,2.0,91,0.00,,,0.00,meteohub,2013-04-22 11:42:00,
2013-04-22 07:52:00,39.9,35.2,30.59,NE,45,3.0,6.0,83,0.00,,,0.00,meteohub,2013-04-22 11:52:00,
2013-04-22 08:02:00,41.0,35.6,30.60,NE,45,2.0,6.0,81,0.00,,,0.00,meteohub,2013-04-22 12:02:00,
2013-04-22 08:12:00,42.1,36.0,30.60,NE,45,2.0,6.0,79,0.00,,,0.00,meteohub,2013-04-22 12:12:00,
2013-04-22 08:22:00,43.0,36.7,30.60,NE,45,2.0,4.0,78,0.00,,,0.00,meteohub,2013-04-22 12:22:00,
2013-04-22 08:32:00,43.0,36.7,30.60,NE,45,2.0,4.0,78,0.00,,,0.00,meteohub,2013-04-22 12:32:00,
2013-04-22 08:42:00,44.1,36.7,30.61,East,90,2.0,5.0,75,0.00,,,0.00,meteohub,2013-04-22 12:42:00,
2013-04-22 08:52:00,45.0,36.5,30.61,NE,45,2.0,7.0,72,0.00,,,0.00,meteohub,2013-04-22 12:52:00,
2013-04-22 09:02:00,45.0,36.1,30.61,East,90,1.0,6.0,71,0.00,,,0.00,meteohub,2013-04-22 13:02:00,
2013-04-22 09:12:00,45.0,35.8,30.62,NE,45,1.0,6.0,70,0.00,,,0.00,meteohub,2013-04-22 13:12:00,
2013-04-22 09:22:00,45.0,35.8,30.62,ESE,112,3.0,7.0,70,0.00,,,0.00,meteohub,2013-04-22 13:22:00,
2013-04-22 09:32:00,45.0,35.1,30.62,NE,45,3.0,9.0,68,0.00,,,0.00,meteohub,2013-04-22 13:32:00,
2013-04-22 09:42:00,45.0,35.8,30.62,NE,45,1.0,9.0,70,0.00,,,0.00,meteohub,2013-04-22 13:42:00,
2013-04-22 09:52:00,46.0,36.1,30.62,NE,45,2.0,8.0,68,0.00,,,0.00,meteohub,2013-04-22 13:52:00,
2013-04-22 10:02:00,46.9,36.1,30.62,SE,135,3.0,8.0,66,0.00,,,0.00,meteohub,2013-04-22 14:02:00,
2013-04-22 10:12:00,46.9,35.1,30.62,NE,45,4.0,8.0,63,0.00,,,0.00,meteohub,2013-04-22 14:12:00,
2013-04-22 10:22:00,48.0,35.6,30.62,NE,45,1.0,6.0,62,0.00,,,0.00,meteohub,2013-04-22 14:22:00,
2013-04-22 10:32:00,48.0,35.6,30.62,East,90,1.0,7.0,62,0.00,,,0.00,meteohub,2013-04-22 14:32:00,
2013-04-22 10:42:00,48.0,35.6,30.62,ESE,112,6.0,7.0,62,0.00,,,0.00,meteohub,2013-04-22 14:42:00,
2013-04-22 10:52:00,48.0,35.6,30.62,ESE,112,4.0,7.0,62,0.00,,,0.00,meteohub,2013-04-22 14:52:00,
2013-04-22 11:02:00,48.9,35.6,30.62,SE,135,2.0,6.0,60,0.00,,,0.00,meteohub,2013-04-22 15:02:00,
2013-04-22 11:12:00,50.0,34.9,30.63,SW,225,1.0,7.0,56,0.00,,,0.00,meteohub,2013-04-22 15:12:00,
2013-04-22 11:22:00,50.0,34.9,30.63,East,90,2.0,7.0,56,0.00,,,0.00,meteohub,2013-04-22 15:22:00,
2013-04-22 11:32:00,50.0,34.9,30.62,SE,135,2.0,7.0,56,0.00,,,0.00,meteohub,2013-04-22 15:32:00,
2013-04-22 11:42:00,50.0,35.4,30.62,North,0,1.0,6.0,57,0.00,,,0.00,meteohub,2013-04-22 15:42:00,
2013-04-22 11:52:00,51.1,34.5,30.62,East,90,2.0,7.0,53,0.00,,,0.00,meteohub,2013-04-22 15:52:00,
2013-04-22 12:02:00,51.1,34.5,30.62,SSE,157,6.0,9.0,53,0.00,,,0.00,meteohub,2013-04-22 16:02:00,
2013-04-22 12:12:00,51.1,35.4,30.62,SE,135,3.0,9.0,55,0.00,,,0.00,meteohub,2013-04-22 16:12:00,
2013-04-22 12:22:00,51.1,35.1,30.61,SE,135,3.0,6.0,54,0.00,,,0.00,meteohub,2013-04-22 16:22:00,
2013-04-22 12:32:00,51.1,35.1,30.61,East,90,1.0,7.0,54,0.00,,,0.00,meteohub,2013-04-22 16:32:00,
2013-04-22 12:42:00,52.0,34.3,30.61,SSE,157,2.0,7.0,51,0.00,,,0.00,meteohub,2013-04-22 16:42:00,
2013-04-22 12:52:00,53.1,34.9,30.61,NE,45,2.0,7.0,50,0.00,,,0.00,meteohub,2013-04-22 16:52:00,
2013-04-22 13:02:00,52.0,34.0,30.60,South,180,2.0,8.0,50,0.00,,,0.00,meteohub,2013-04-22 17:02:00,
2013-04-22 13:12:00,53.1,34.9,30.60,NE,45,2.0,8.0,50,0.00,,,0.00,meteohub,2013-04-22 17:12:00,
2013-04-22 13:22:00,54.0,34.7,30.60,NE,45,4.0,9.0,48,0.00,,,0.00,meteohub,2013-04-22 17:22:00,
2013-04-22 13:32:00,53.1,34.9,30.59,SE,135,4.0,9.0,50,0.00,,,0.00,meteohub,2013-04-22 17:32:00,
2013-04-22 13:42:00,54.0,35.2,30.59,SE,135,3.0,7.0,49,0.00,,,0.00,meteohub,2013-04-22 17:42:00,
2013-04-22 13:52:00,54.0,35.8,30.59,NE,45,3.0,7.0,50,0.00,,,0.00,meteohub,2013-04-22 17:52:00,
2013-04-22 14:02:00,54.0,35.8,30.60,East,90,7.0,7.0,50,0.00,,,0.00,meteohub,2013-04-22 18:02:00,
2013-04-22 14:12:00,54.0,35.2,30.59,NE,45,1.0,8.0,49,0.00,,,0.00,meteohub,2013-04-22 18:12:00,
2013-04-22 14:22:00,55.0,35.2,30.59,ESE,112,2.0,6.0,47,0.00,,,0.00,meteohub,2013-04-22 18:22:00,
2013-04-22 14:32:00,54.0,35.2,30.59,ESE,112,2.0,8.0,49,0.00,,,0.00,meteohub,2013-04-22 18:32:00,
2013-04-22 14:42:00,53.1,34.3,30.58,East,90,1.0,9.0,49,0.00,,,0.00,meteohub,2013-04-22 18:42:00,
2013-04-22 14:52:00,54.0,34.2,30.58,SE,135,3.0,9.0,47,0.00,,,0.00,meteohub,2013-04-22 18:52:00,
2013-04-22 15:02:00,55.9,35.4,30.57,SE,135,4.0,7.0,46,0.00,,,0.00,meteohub,2013-04-22 19:02:00,
2013-04-22 15:12:00,55.0,35.2,30.57,East,90,2.0,7.0,47,0.00,,,0.00,meteohub,2013-04-22 19:12:00,
2013-04-22 15:22:00,55.0,34.7,30.56,SE,135,2.0,8.0,46,0.00,,,0.00,meteohub,2013-04-22 19:22:00,
2013-04-22 15:32:00,55.9,35.4,30.56,SE,135,5.0,8.0,46,0.00,,,0.00,meteohub,2013-04-22 19:32:00,
2013-04-22 15:42:00,57.0,36.5,30.56,NE,45,1.0,7.0,46,0.00,,,0.00,meteohub,2013-04-22 19:42:00,
2013-04-22 15:52:00,55.9,36.5,30.55,NE,45,2.0,8.0,48,0.00,,,0.00,meteohub,2013-04-22 19:52:00,
2013-04-22 16:02:00,55.9,35.4,30.55,East,90,2.0,8.0,46,0.00,,,0.00,meteohub,2013-04-22 20:02:00,
2013-04-22 16:12:00,55.0,35.2,30.54,South,180,2.0,7.0,47,0.00,,,0.00,meteohub,2013-04-22 20:12:00,
2013-04-22 16:22:00,55.0,35.8,30.54,SE,135,5.0,7.0,48,0.00,,,0.00,meteohub,2013-04-22 20:22:00,
2013-04-22 16:32:00,55.0,35.2,30.53,SE,135,2.0,9.0,47,0.00,,,0.00,meteohub,2013-04-22 20:32:00,
2013-04-22 16:42:00,55.9,36.5,30.53,SSE,157,1.0,9.0,48,0.00,,,0.00,meteohub,2013-04-22 20:42:00,
2013-04-22 16:52:00,55.0,35.8,30.53,SE,135,1.0,7.0,48,0.00,,,0.00,meteohub,2013-04-22 20:52:00,
2013-04-22 17:02:00,55.9,36.0,30.53,NE,45,3.0,7.0,47,0.00,,,0.00,meteohub,2013-04-22 21:02:00,
2013-04-22 17:12:00,55.0,35.2,30.53,NE,45,4.0,8.0,47,0.00,,,0.00,meteohub,2013-04-22 21:12:00,
2013-04-22 17:22:00,55.0,35.8,30.52,SE,135,2.0,8.0,48,0.00,,,0.00,meteohub,2013-04-22 21:22:00,
2013-04-22 17:32:00,55.9,37.0,30.52,SE,135,1.0,8.0,49,0.00,,,0.00,meteohub,2013-04-22 21:32:00,
2013-04-22 17:42:00,55.0,36.7,30.52,SE,135,2.0,9.0,50,0.00,,,0.00,meteohub,2013-04-22 21:42:00,
2013-04-22 17:52:00,54.0,35.8,30.52,SSW,202,0.0,6.0,50,0.00,,,0.00,meteohub,2013-04-22 21:52:00,
2013-04-22 18:02:00,55.0,36.1,30.52,SE,135,3.0,8.0,49,0.00,,,0.00,meteohub,2013-04-22 22:02:00,
2013-04-22 18:12:00,55.0,36.1,30.51,SE,135,2.0,8.0,49,0.00,,,0.00,meteohub,2013-04-22 22:12:00,
2013-04-22 18:22:00,55.0,36.7,30.51,SE,135,4.0,8.0,50,0.00,,,0.00,meteohub,2013-04-22 22:22:00,
2013-04-22 18:32:00,55.0,36.7,30.51,East,90,4.0,7.0,50,0.00,,,0.00,meteohub,2013-04-22 22:32:00,
2013-04-22 18:42:00,54.0,36.3,30.51,SE,135,4.0,7.0,51,0.00,,,0.00,meteohub,2013-04-22 22:42:00,
2013-04-22 18:52:00,53.1,36.0,30.50,East,90,1.0,9.0,52,0.00,,,0.00,meteohub,2013-04-22 22:52:00,
2013-04-22 19:02:00,52.0,35.4,30.50,SE,135,3.0,7.0,53,0.00,,,0.00,meteohub,2013-04-22 23:02:00,
2013-04-22 19:12:00,52.0,35.4,30.50,NE,45,3.0,7.0,53,0.00,,,0.00,meteohub,2013-04-22 23:12:00,
2013-04-22 19:22:00,52.0,35.4,30.50,NE,45,2.0,7.0,53,0.00,,,0.00,meteohub,2013-04-22 23:22:00,
2013-04-22 19:32:00,51.1,35.1,30.50,East,90,2.0,6.0,54,0.00,,,0.00,meteohub,2013-04-22 23:32:00,
2013-04-22 19:42:00,51.1,35.1,30.50,East,90,2.0,7.0,54,0.00,,,0.00,meteohub,2013-04-22 23:42:00,
2013-04-22 19:52:00,51.1,35.1,30.50,ESE,112,2.0,6.0,54,0.00,,,0.00,meteohub,2013-04-22 23:52:00,
2013-04-22 20:02:00,51.1,35.4,30.50,East,90,2.0,6.0,55,0.00,,,0.00,meteohub,2013-04-23 00:02:00,
2013-04-22 20:12:00,51.1,36.0,30.50,SE,135,2.0,6.0,56,0.00,,,0.00,meteohub,2013-04-23 00:12:00,
2013-04-22 20:22:00,51.1,36.3,30.50,East,90,2.0,6.0,57,0.00,,,0.00,meteohub,2013-04-23 00:22:00,
2013-04-22 20:32:00,51.1,36.9,30.50,East,90,1.0,6.0,58,0.00,,,0.00,meteohub,2013-04-23 00:32:00,
2013-04-22 20:42:00,51.1,36.9,30.50,NE,45,3.0,6.0,58,0.00,,,0.00,meteohub,2013-04-23 00:42:00,
2013-04-22 20:52:00,50.0,35.8,30.50,East,90,5.0,8.0,58,0.00,,,0.00,meteohub,2013-04-23 00:52:00,
2013-04-22 21:02:00,50.0,35.8,30.50,East,90,1.0,12.0,58,0.00,,,0.00,meteohub,2013-04-23 01:02:00,
2013-04-22 21:12:00,50.0,36.3,30.50,SE,135,2.0,12.0,59,0.00,,,0.00,meteohub,2013-04-23 01:12:00,
2013-04-22 21:22:00,50.0,36.7,30.51,ESE,112,1.0,5.0,60,0.00,,,0.00,meteohub,2013-04-23 01:22:00,
2013-04-22 21:32:00,50.0,37.0,30.50,East,90,0.0,7.0,61,0.00,,,0.00,meteohub,2013-04-23 01:32:00,
2013-04-22 21:42:00,50.0,37.0,30.50,ESE,112,2.0,6.0,61,0.00,,,0.00,meteohub,2013-04-23 01:42:00,
2013-04-22 21:52:00,48.9,36.1,30.50,ESE,112,3.0,6.0,61,0.00,,,0.00,meteohub,2013-04-23 01:52:00,
2013-04-22 22:02:00,48.9,36.5,30.50,East,90,2.0,6.0,62,0.00,,,0.00,meteohub,2013-04-23 02:02:00,
2013-04-22 22:12:00,48.9,36.5,30.50,East,90,2.0,6.0,62,0.00,,,0.00,meteohub,2013-04-23 02:12:00,
2013-04-22 22:22:00,48.9,36.1,30.50,East,90,2.0,6.0,61,0.00,,,0.00,meteohub,2013-04-23 02:22:00,
2013-04-22 22:32:00,48.9,36.5,30.50,East,90,2.0,5.0,62,0.00,,,0.00,meteohub,2013-04-23 02:32:00,
2013-04-22 22:42:00,48.9,36.1,30.50,East,90,4.0,6.0,61,0.00,,,0.00,meteohub,2013-04-23 02:42:00,
2013-04-22 22:52:00,48.9,36.5,30.49,SE,135,3.0,6.0,62,0.00,,,0.00,meteohub,2013-04-23 02:52:00,
2013-04-22 23:02:00,48.9,36.9,30.49,East,90,2.0,6.0,63,0.00,,,0.00,meteohub,2013-04-23 03:02:00,
2013-04-22 23:12:00,48.0,36.0,30.49,East,90,1.0,4.0,63,0.00,,,0.00,meteohub,2013-04-23 03:12:00,
2013-04-22 23:22:00,48.0,36.0,30.49,ENE,67,2.0,6.0,63,0.00,,,0.00,meteohub,2013-04-23 03:22:00,
2013-04-22 23:32:00,48.0,36.0,30.49,NE,45,2.0,5.0,63,0.00,,,0.00,meteohub,2013-04-23 03:32:00,
2013-04-22 23:42:00,48.0,36.5,30.48,East,90,4.0,5.0,64,0.00,,,0.00,meteohub,2013-04-23 03:42:00,
2013-04-22 23:52:00,48.0,36.9,30.49,NE,45,2.0,6.0,65,0.00,,,0.00,meteohub,2013-04-23 03:52:00,